Location: Lafig�re
(44.4503°N, 4.0357°E)
Time: 07:10:27
(UTC+00:00)

Cosmos 1092 Rocket - Pass Details

Date: 26 January 2021
Orbit: 954 x 994 km, 83.0° (Epoch: 08 March)

Event Time Altitude Azimuth Distance (km) Brightness Sun altitude
Rises 04:05:15 0° 360° (N) 3,645 7.1 -32.6°
Reaches altitude 10° 04:08:07 10° 11° (N) 2,697 6.5 -32.1°
Maximum altitude 04:13:26 30° 71° (ENE) 1,664 5.7 -31.2°
Drops below altitude 10° 04:18:45 10° 131° (SE) 2,698 6.8 -30.2°
Sets 04:21:35 0° 142° (SE) 3,647 7.5 -29.7°
